| time (UTC) | temp F | wind direction | speed MPH | gust MPH | rain 1hr in | rain 24hr in | rain mn in | humidity % | barometer mb |
| 20260503233012 | 85 | 0.0 | 0.0 | 0.00 | 0.00 | 0.00 | 31 | 1005.8 | |
| 20260503232512 | 85 | 0.0 | 0.0 | 0.00 | 0.00 | 0.00 | 30 | 1004.9 | |
| 20260503232012 | 85 | 0.0 | 0.0 | 0.00 | 0.00 | 0.00 | 30 | 1004.7 | |
| 20260503231512 | 85 | 0.0 | 0.0 | 0.00 | 0.00 | 0.00 | 30 | 1004.6 | |
| 20260503231011 | 86 | 0.0 | 0.0 | 0.00 | 0.00 | 0.00 | 29 | 1004.7 | |
| 20260503230511 | 86 | 0.0 | 0.0 | 0.00 | 0.00 | 0.00 | 28 | 1004.7 | |
| 20260503230011 | 86 | 0.0 | 0.0 | 0.00 | 0.00 | 0.00 | 27 | 1004.7 | |
| 20260503225512 | 87 | 0.0 | 0.0 | 0.00 | 0.00 | 0.00 | 28 | 1004.7 | |
| 20260503225012 | 87 | 0.0 | 0.0 | 0.00 | 0.00 | 0.00 | 29 | 1004.7 | |
| 20260503224512 | 88 | 0.0 | 0.0 | 0.00 | 0.00 | 0.00 | 29 | 1004.6 | |
| 20260503223011 | 87 | 0.0 | 0.0 | 0.00 | 0.00 | 0.00 | 29 | 1005.0 | |
| 20260503222511 | 87 | 0.0 | 0.0 | 0.00 | 0.00 | 0.00 | 27 | 1005.0 | |
| 20260503222011 | 87 | 0.0 | 0.0 | 0.00 | 0.00 | 0.00 | 29 | 1005.0 | |
| 20260503221512 | 87 | 0.0 | 0.0 | 0.00 | 0.00 | 0.00 | 29 | 1005.0 | |
| 20260503221011 | 88 | 0.0 | 0.0 | 0.00 | 0.00 | 0.00 | 32 | 1005.0 | |
| 20260503220511 | 87 | 0.0 | 0.0 | 0.00 | 0.00 | 0.00 | 30 | 1005.1 | |
| 20260503220011 | 87 | 0.0 | 0.0 | 0.00 | 0.00 | 0.00 | 30 | 1005.2 | |
| 20260503215012 | 86 | 0.0 | 0.0 | 0.00 | 0.00 | 0.00 | 34 | 1005.4 | |
| 20260503214011 | 86 | 0.0 | 0.0 | 0.00 | 0.00 | 0.00 | 35 | 1005.7 | |
| 20260503213511 | 85 | 0.0 | 0.0 | 0.00 | 0.00 | 0.00 | 32 | 1005.8 | |
| 20260503213011 | 85 | 0.0 | 0.0 | 0.00 | 0.00 | 0.00 | 32 | 1005.9 | |
| 20260503211511 | 85 | 0.0 | 0.0 | 0.00 | 0.00 | 0.00 | 34 | 1006.2 | |
| 20260503211012 | 85 | 0.0 | 0.0 | 0.00 | 0.00 | 0.00 | 34 | 1006.3 | |
| 20260503210512 | 85 | 0.0 | 0.0 | 0.00 | 0.00 | 0.00 | 33 | 1006.4 | |
| 20260503210012 | 85 | 0.0 | 0.0 | 0.00 | 0.00 | 0.00 | 34 | 1006.5 | |
| 20260503205511 | 85 | 0.0 | 0.0 | 0.00 | 0.00 | 0.00 | 33 | 1006.5 | |
| 20260503204011 | 84 | 0.0 | 0.0 | 0.00 | 0.00 | 0.00 | 38 | 1006.7 | |
| 20260503203511 | 84 | 0.0 | 0.0 | 0.00 | 0.00 | 0.00 | 35 | 1006.7 | |
| 20260503203012 | 84 | 0.0 | 0.0 | 0.00 | 0.00 | 0.00 | 36 | 1006.8 | |
| 20260503202512 | 83 | 0.0 | 0.0 | 0.00 | 0.00 | 0.00 | 37 | 1006.8 | |
| 20260503202011 | 83 | 0.0 | 0.0 | 0.00 | 0.00 | 0.00 | 37 | 1006.8 | |
| 20260503201511 | 83 | 0.0 | 0.0 | 0.00 | 0.00 | 0.00 | 36 | 1006.9 | |
| 20260503201011 | 83 | 0.0 | 0.0 | 0.00 | 0.00 | 0.00 | 36 | 1006.9 | |
| 20260503200511 | 84 | 0.0 | 0.0 | 0.00 | 0.00 | 0.00 | 33 | 1007.0 | |
| 20260503200011 | 83 | 0.0 | 0.0 | 0.00 | 0.00 | 0.00 | 35 | 1006.1 | |
| 20260503195512 | 83 | 0.0 | 0.0 | 0.00 | 0.00 | 0.00 | 36 | 1006.2 | |
| 20260503195011 | 83 | 0.0 | 0.0 | 0.00 | 0.00 | 0.00 | 37 | 1006.2 | |
| 20260503194512 | 83 | 0.0 | 0.0 | 0.00 | 0.00 | 0.00 | 36 | 1006.3 | |
| 20260503193511 | 82 | 0.0 | 0.0 | 0.00 | 0.00 | 0.00 | 38 | 1006.4 | |
| 20260503193011 | 81 | 0.0 | 0.0 | 0.00 | 0.00 | 0.00 | 40 | 1006.6 | |
| 20260503192511 | 81 | 0.0 | 0.0 | 0.00 | 0.00 | 0.00 | 38 | 1006.6 | |
| 20260503192011 | 80 | 0.0 | 0.0 | 0.00 | 0.00 | 0.00 | 42 | 1006.6 | |
| 20260503191512 | 80 | 0.0 | 0.0 | 0.00 | 0.00 | 0.00 | 40 | 1006.7 | |
| 20260503191011 | 80 | 0.0 | 0.0 | 0.00 | 0.00 | 0.00 | 40 | 1006.9 | |
| 20260503190511 | 79 | 0.0 | 0.0 | 0.00 | 0.00 | 0.00 | 45 | 1006.9 | |
| 20260503190011 | 79 | 0.0 | 0.0 | 0.00 | 0.00 | 0.00 | 44 | 1007.0 | |
| 20260503185512 | 78 | 0.0 | 0.0 | 0.00 | 0.00 | 0.00 | 46 | 1007.0 | |
| 20260503183511 | 75 | 0.0 | 0.0 | 0.00 | 0.00 | 0.00 | 52 | 1007.3 | |
| 20260503183011 | 74 | 0.0 | 0.0 | 0.00 | 0.00 | 0.00 | 51 | 1007.3 | |
| 20260503182512 | 73 | 0.0 | 0.0 | 0.00 | 0.00 | 0.00 | 52 | 1007.4 | |
| 20260503182012 | 73 | 0.0 | 0.0 | 0.00 | 0.00 | 0.00 | 52 | 1007.6 | |
| 20260503181511 | 72 | 0.0 | 0.0 | 0.00 | 0.00 | 0.00 | 52 | 1007.6 | |
| 20260503181012 | 72 | 0.0 | 0.0 | 0.00 | 0.00 | 0.00 | 53 | 1007.7 | |
| 20260503180512 | 71 | 0.0 | 0.0 | 0.00 | 0.00 | 0.00 | 52 | 1007.8 | |
| 20260503180011 | 71 | 0.0 | 0.0 | 0.00 | 0.00 | 0.00 | 53 | 1007.8 | |
| 20260503175511 | 70 | 0.0 | 0.0 | 0.00 | 0.00 | 0.00 | 53 | 1007.9 | |
| 20260503175011 | 70 | 0.0 | 0.0 | 0.00 | 0.00 | 0.00 | 52 | 1008.0 | |
| 20260503174512 | 69 | 0.0 | 0.0 | 0.00 | 0.00 | 0.00 | 50 | 1008.0 | |
| 20260503174011 | 69 | 0.0 | 0.0 | 0.00 | 0.00 | 0.00 | 48 | 1008.1 | |
| 20260503173511 | 68 | 0.0 | 0.0 | 0.00 | 0.00 | 0.00 | 49 | 1008.2 | |
| 20260503173011 | 68 | 0.0 | 0.0 | 0.00 | 0.00 | 0.00 | 48 | 1008.2 | |
| 20260503172511 | 67 | 0.0 | 0.0 | 0.00 | 0.00 | 0.00 | 45 | 1008.3 | |
| 20260503172011 | 67 | 0.0 | 0.0 | 0.00 | 0.00 | 0.00 | 37 | 1008.4 | |
| 20260503171511 | 66 | 0.0 | 0.0 | 0.00 | 0.00 | 0.00 | 40 | 1008.4 | |
| 20260503171011 | 66 | 0.0 | 0.0 | 0.00 | 0.00 | 0.00 | 21 | 1008.4 | |
| 20260503170511 | 65 | 0.0 | 0.0 | 0.00 | 0.00 | 0.00 | 18 | 1008.4 | |
| 20260503151011 | 53 | 0.0 | 0.0 | 0.00 | 0.00 | 0.00 | 1 | 1009.1 | |
| 20260503150512 | 53 | 0.0 | 0.0 | 0.00 | 0.00 | 0.00 | 1 | 1009.2 | |
| 20260503131011 | 50 | 0.0 | 0.0 | 0.00 | 0.00 | 0.00 | 1 | 1008.5 | |
| 20260503130511 | 50 | 0.0 | 0.0 | 0.00 | 0.00 | 0.00 | 1 | 1008.5 | |
| 20260503110511 | 51 | 0.0 | 0.0 | 0.00 | 0.00 | 0.00 | 1 | 1008.6 |